| time (UTC) | temp F | wind direction | speed MPH | gust MPH | rain 1hr in | rain 24hr in | rain mn in | humidity % | barometer mb |
| 20260506195852 | 58 | 0 | 0.0 | 0.0 | 4.81 | 0.20 | 0.00 | 81 | 1010.9 |
| 20260506195352 | 58 | 0 | 0.0 | 0.0 | 5.66 | 9.16 | 0.00 | 80 | 1011.0 |
| 20260506194852 | 58 | 0 | 0.0 | 0.0 | 5.54 | 8.59 | 0.00 | 80 | 1010.9 |
| 20260506194352 | 58 | 0 | 0.0 | 0.0 | 5.85 | 8.45 | 0.00 | 80 | 1010.8 |
| 20260506193852 | 58 | 0 | 0.0 | 0.0 | 5.68 | 7.77 | 0.00 | 80 | 1010.7 |
| 20260506193352 | 58 | 0 | 0.0 | 0.0 | 6.46 | 7.55 | 0.00 | 80 | 1010.6 |
| 20260506192852 | 58 | 0 | 0.0 | 0.0 | 6.03 | 6.90 | 0.00 | 80 | 1010.5 |
| 20260506192352 | 58 | 0 | 0.0 | 0.0 | 6.13 | 6.59 | 0.00 | 80 | 1010.3 |
| 20260506191852 | 59 | 0 | 0.0 | 0.0 | 7.79 | 6.08 | 0.00 | 80 | 1010.4 |
| 20260506191352 | 59 | 0 | 0.0 | 0.0 | 7.48 | 1.85 | 0.00 | 80 | 1010.2 |
| 20260506190852 | 59 | 0 | 0.0 | 0.0 | 7.91 | 1.85 | 0.00 | 80 | 1010.0 |
| 20260506190352 | 59 | 0 | 0.0 | 0.0 | 8.03 | 1.85 | 0.00 | 80 | 1009.9 |
| 20260506185852 | 59 | 0 | 0.0 | 0.0 | 9.64 | 1.85 | 0.00 | 80 | 1009.7 |
| 20260506185352 | 59 | 0 | 0.0 | 0.0 | 9.44 | 1.73 | 0.00 | 80 | 1009.7 |
| 20260506184852 | 60 | 0 | 0.0 | 0.0 | 9.76 | 1.28 | 0.00 | 79 | 1009.4 |
| 20260506184352 | 60 | 0 | 0.0 | 0.0 | 9.56 | 0.67 | 0.00 | 79 | 1009.3 |
| 20260506183852 | 60 | 0 | 0.0 | 0.0 | 9.56 | 8.96 | 0.00 | 78 | 1009.2 |
| 20260506183352 | 60 | 0 | 0.0 | 0.0 | 1.54 | 8.92 | 0.00 | 78 | 1009.0 |
| 20260506182852 | 60 | 0 | 0.0 | 0.0 | 1.93 | 8.34 | 0.00 | 77 | 1009.1 |
| 20260506182352 | 61 | 0 | 0.0 | 0.0 | 1.90 | 7.75 | 0.00 | 76 | 1009.0 |
| 20260506181852 | 61 | 0 | 0.0 | 0.0 | 1.46 | 6.12 | 0.00 | 77 | 1008.9 |
| 20260506181352 | 61 | 0 | 0.0 | 0.0 | 3.09 | 1.85 | 0.00 | 77 | 1009.0 |
| 20260506180852 | 61 | 0 | 0.0 | 0.0 | 3.47 | 1.85 | 0.00 | 76 | 1008.7 |
| 20260506180352 | 61 | 0 | 0.0 | 0.0 | 2.99 | 1.85 | 0.00 | 76 | 1008.8 |
| 20260506175852 | 61 | 0 | 0.0 | 0.0 | 1.40 | 1.85 | 0.00 | 75 | 1008.8 |
| 20260506175352 | 62 | 0 | 0.0 | 0.0 | 2.39 | 1.85 | 0.00 | 75 | 1008.6 |
| 20260506174852 | 62 | 0 | 0.0 | 0.0 | 3.05 | 1.85 | 0.00 | 76 | 1008.4 |
| 20260506174352 | 62 | 0 | 0.0 | 0.0 | 2.21 | 1.85 | 0.00 | 76 | 1008.1 |
| 20260506173852 | 62 | 0 | 0.0 | 0.0 | 1.72 | 1.85 | 0.00 | 77 | 1008.3 |
| 20260506173352 | 62 | 0 | 0.0 | 0.0 | 2.09 | 0.34 | 0.00 | 77 | 1008.3 |
| 20260506172852 | 62 | 0 | 0.0 | 0.0 | 2.23 | 0.01 | 0.00 | 77 | 1008.2 |
| 20260506172352 | 62 | 0 | 0.0 | 0.0 | 2.31 | 8.22 | 0.00 | 77 | 1008.4 |
| 20260506171852 | 62 | 0 | 0.0 | 0.0 | 1.31 | 6.45 | 0.00 | 77 | 1008.2 |
| 20260506171352 | 62 | 0 | 0.0 | 0.0 | 1.60 | 1.85 | 0.00 | 78 | 1008.3 |
| 20260506170852 | 62 | 0 | 0.0 | 0.0 | 1.68 | 1.85 | 0.00 | 78 | 1008.3 |
| 20260506170352 | 62 | 0 | 0.0 | 0.0 | 1.84 | 1.85 | 0.00 | 79 | 1008.4 |
| 20260506165852 | 62 | 0 | 0.0 | 0.0 | 1.46 | 1.85 | 0.00 | 80 | 1008.2 |
| 20260506165352 | 62 | 0 | 0.0 | 0.0 | 1.93 | 1.85 | 0.00 | 80 | 1008.3 |
| 20260506164852 | 62 | 0 | 0.0 | 0.0 | 1.93 | 1.85 | 0.00 | 80 | 1008.2 |
| 20260506164352 | 61 | 0 | 0.0 | 0.0 | 2.58 | 1.85 | 0.00 | 80 | 1008.1 |
| 20260506163852 | 61 | 0 | 0.0 | 0.0 | 2.03 | 1.85 | 0.00 | 80 | 1008.3 |
| 20260506163353 | 61 | 0 | 0.0 | 0.0 | 1.19 | 0.12 | 0.00 | 81 | 1008.3 |
| 20260506162853 | 61 | 0 | 0.0 | 0.0 | 0.82 | 8.26 | 0.00 | 81 | 1008.2 |
| 20260506162353 | 61 | 0 | 0.0 | 0.0 | 1.11 | 7.55 | 0.00 | 82 | 1008.2 |
| 20260506161853 | 61 | 0 | 0.0 | 0.0 | 1.15 | 6.71 | 0.00 | 83 | 1008.2 |
| 20260506161352 | 62 | 0 | 0.0 | 0.0 | 1.80 | 1.85 | 0.00 | 84 | 1007.9 |
| 20260506160853 | 61 | 0 | 0.0 | 0.0 | 0.27 | 1.85 | 0.00 | 85 | 1007.9 |
| 20260506160352 | 61 | 0 | 0.0 | 0.0 | 0.89 | 1.85 | 0.00 | 85 | 1008.1 |
| 20260506155853 | 61 | 0 | 0.0 | 0.0 | 0.33 | 1.85 | 0.00 | 85 | 1008.3 |
| 20260506155353 | 60 | 0 | 0.0 | 0.0 | 1.07 | 1.85 | 0.00 | 85 | 1008.3 |
| 20260506154853 | 60 | 0 | 0.0 | 0.0 | 9.95 | 1.85 | 0.00 | 86 | 1008.4 |
| 20260506154353 | 60 | 0 | 0.0 | 0.0 | 0.27 | 1.85 | 0.00 | 86 | 1008.4 |
| 20260506153853 | 59 | 0 | 0.0 | 0.0 | 0.05 | 1.28 | 0.00 | 85 | 1008.6 |
| 20260506153353 | 59 | 0 | 0.0 | 0.0 | 0.33 | 0.34 | 0.00 | 85 | 1008.5 |
| 20260506152853 | 59 | 0 | 0.0 | 0.0 | 9.82 | 8.65 | 0.00 | 85 | 1008.7 |
| 20260506152353 | 59 | 0 | 0.0 | 0.0 | 9.76 | 8.14 | 0.00 | 86 | 1008.9 |
| 20260506151853 | 58 | 0 | 0.0 | 0.0 | 9.46 | 6.79 | 0.00 | 86 | 1008.8 |
| 20260506151353 | 58 | 0 | 0.0 | 0.0 | 8.93 | 1.85 | 0.00 | 86 | 1008.9 |
| 20260506150853 | 58 | 0 | 0.0 | 0.0 | 8.64 | 1.85 | 0.00 | 86 | 1009.1 |
| 20260506150353 | 58 | 0 | 0.0 | 0.0 | 7.97 | 1.85 | 0.00 | 86 | 1008.8 |
| 20260506145853 | 58 | 0 | 0.0 | 0.0 | 7.11 | 1.85 | 0.00 | 86 | 1008.9 |
| 20260506145353 | 58 | 0 | 0.0 | 0.0 | 8.01 | 1.85 | 0.00 | 86 | 1009.0 |
| 20260506144853 | 57 | 0 | 0.0 | 0.0 | 7.17 | 0.93 | 0.00 | 86 | 1009.0 |
| 20260506144353 | 58 | 0 | 0.0 | 0.0 | 7.05 | 0.38 | 0.00 | 86 | 1009.1 |
| 20260506143853 | 58 | 0 | 0.0 | 0.0 | 6.40 | 8.61 | 0.00 | 86 | 1009.1 |
| 20260506143353 | 57 | 0 | 0.0 | 0.0 | 6.75 | 8.30 | 0.00 | 86 | 1009.1 |
| 20260506142853 | 58 | 0 | 0.0 | 0.0 | 6.70 | 7.65 | 0.00 | 86 | 1009.3 |
| 20260506142353 | 57 | 0 | 0.0 | 0.0 | 6.26 | 7.12 | 0.00 | 86 | 1009.4 |
| 20260506141853 | 57 | 0 | 0.0 | 0.0 | 6.24 | 6.41 | 0.00 | 86 | 1009.4 |
| 20260506141353 | 57 | 0 | 0.0 | 0.0 | 6.22 | 1.85 | 0.00 | 86 | 1009.5 |
| 20260506140853 | 57 | 0 | 0.0 | 0.0 | 6.46 | 1.85 | 0.00 | 86 | 1009.4 |
| 20260506140353 | 57 | 0 | 0.0 | 0.0 | 6.13 | 1.85 | 0.00 | 86 | 1009.5 |
| 20260506135853 | 57 | 0 | 0.0 | 0.0 | 5.34 | 0.73 | 0.00 | 86 | 1009.3 |
| 20260506135353 | 57 | 0 | 0.0 | 0.0 | 5.36 | 0.32 | 0.00 | 86 | 1009.4 |
| 20260506134853 | 57 | 0 | 0.0 | 0.0 | 5.36 | 9.26 | 0.00 | 86 | 1009.3 |
| 20260506134353 | 56 | 0 | 0.0 | 0.0 | 5.07 | 8.87 | 0.00 | 85 | 1009.5 |
| 20260506133853 | 56 | 0 | 0.0 | 0.0 | 4.91 | 8.34 | 0.00 | 85 | 1009.7 |
| 20260506133353 | 56 | 0 | 0.0 | 0.0 | 4.85 | 7.94 | 0.00 | 85 | 1009.7 |
| 20260506132353 | 55 | 0 | 0.0 | 0.0 | 4.56 | 7.18 | 0.00 | 84 | 1009.7 |
| 20260506131853 | 55 | 0 | 0.0 | 0.0 | 4.11 | 6.41 | 0.00 | 84 | 1009.7 |
| 20260506131353 | 55 | 0 | 0.0 | 0.0 | 4.13 | 1.81 | 0.00 | 84 | 1009.8 |
| 20260506130853 | 55 | 0 | 0.0 | 0.0 | 3.69 | 1.20 | 0.00 | 84 | 1009.8 |
| 20260506130353 | 55 | 0 | 0.0 | 0.0 | 3.54 | 0.97 | 0.00 | 84 | 1009.8 |
| 20260506125853 | 55 | 0 | 0.0 | 0.0 | 3.54 | 0.59 | 0.00 | 84 | 1009.7 |
| 20260506125353 | 55 | 0 | 0.0 | 0.0 | 3.42 | 0.16 | 0.00 | 84 | 1009.6 |
| 20260506124853 | 54 | 0 | 0.0 | 0.0 | 3.16 | 9.08 | 0.00 | 83 | 1009.5 |
| 20260506124353 | 54 | 0 | 0.0 | 0.0 | 3.46 | 8.69 | 0.00 | 83 | 1009.5 |
| 20260506123853 | 54 | 0 | 0.0 | 0.0 | 3.12 | 8.34 | 0.00 | 83 | 1009.4 |
| 20260506123353 | 54 | 0 | 0.0 | 0.0 | 3.71 | 8.16 | 0.00 | 83 | 1009.4 |
| 20260506122853 | 54 | 0 | 0.0 | 0.0 | 3.69 | 7.92 | 0.00 | 83 | 1009.3 |
| 20260506122353 | 54 | 0 | 0.0 | 0.0 | 3.97 | 7.65 | 0.00 | 83 | 1009.1 |
| 20260506121853 | 55 | 0 | 0.0 | 0.0 | 4.87 | 7.10 | 0.00 | 84 | 1009.2 |
| 20260506121353 | 55 | 0 | 0.0 | 0.0 | 5.09 | 0.85 | 0.00 | 84 | 1009.4 |
| 20260506120905 | 55 | 0 | 0.0 | 0.0 | 5.91 | 0.77 | 0.00 | 84 | 1009.3 |
| 20260506115853 | 55 | 0 | 0.0 | 0.0 | 6.60 | 0.39 | 0.00 | 84 | 1008.8 |
| 20260506115353 | 56 | 0 | 0.0 | 0.0 | 7.64 | 1.87 | 0.00 | 84 | 1008.6 |
| 20260506114853 | 56 | 0 | 0.0 | 0.0 | 8.60 | 1.48 | 0.00 | 84 | 1008.5 |
| 20260506113353 | 57 | 0 | 0.0 | 0.0 | 0.52 | 0.34 | 0.00 | 84 | 1007.7 |
| 20260506112853 | 57 | 0 | 0.0 | 0.0 | 0.76 | 9.24 | 0.00 | 84 | 1007.6 |
| 20260506112353 | 57 | 0 | 0.0 | 0.0 | 0.86 | 8.59 | 0.00 | 84 | 1007.6 |
| 20260506111853 | 57 | 0 | 0.0 | 0.0 | 0.52 | 7.49 | 0.00 | 84 | 1007.7 |
| 20260506111353 | 57 | 0 | 0.0 | 0.0 | 1.86 | 0.96 | 0.00 | 85 | 1007.8 |
| 20260506110853 | 57 | 0 | 0.0 | 0.0 | 1.50 | 0.96 | 0.00 | 84 | 1007.7 |
| 20260506110353 | 57 | 0 | 0.0 | 0.0 | 1.44 | 0.96 | 0.00 | 84 | 1007.6 |
| 20260506105853 | 57 | 0 | 0.0 | 0.0 | 3.35 | 0.96 | 0.00 | 85 | 1007.4 |
| 20260506105353 | 57 | 0 | 0.0 | 0.0 | 2.56 | 0.96 | 0.00 | 85 | 1007.3 |
| 20260506104853 | 57 | 0 | 0.0 | 0.0 | 2.31 | 0.96 | 0.00 | 85 | 1007.7 |
| 20260506104353 | 57 | 0 | 0.0 | 0.0 | 2.13 | 0.96 | 0.00 | 85 | 1007.8 |
| 20260506103853 | 58 | 0 | 0.0 | 0.0 | 2.21 | 0.96 | 0.00 | 85 | 1008.0 |
| 20260506103353 | 58 | 0 | 0.0 | 0.0 | 3.11 | 0.06 | 0.00 | 85 | 1007.8 |
| 20260506102853 | 58 | 0 | 0.0 | 0.0 | 3.27 | 1.24 | 0.00 | 85 | 1007.9 |
| 20260506102353 | 58 | 0 | 0.0 | 0.0 | 3.39 | 0.48 | 0.00 | 85 | 1007.9 |
| 20260506101853 | 58 | 0 | 0.0 | 0.0 | 2.48 | 8.10 | 0.00 | 85 | 1007.8 |
| 20260506101353 | 58 | 0 | 0.0 | 0.0 | 2.58 | 0.96 | 0.00 | 85 | 1007.9 |
| 20260506100853 | 58 | 0 | 0.0 | 0.0 | 3.21 | 0.96 | 0.00 | 85 | 1007.9 |
| 20260506100353 | 58 | 0 | 0.0 | 0.0 | 3.37 | 0.96 | 0.00 | 85 | 1007.8 |
| 20260506095853 | 58 | 0 | 0.0 | 0.0 | 1.74 | 0.96 | 0.00 | 85 | 1007.8 |
| 20260506095353 | 58 | 0 | 0.0 | 0.0 | 3.35 | 0.96 | 0.00 | 85 | 1007.7 |
| 20260506094853 | 58 | 0 | 0.0 | 0.0 | 3.45 | 0.96 | 0.00 | 85 | 1007.6 |
| 20260506094353 | 58 | 0 | 0.0 | 0.0 | 3.86 | 0.96 | 0.00 | 85 | 1007.6 |
| 20260506093853 | 58 | 0 | 0.0 | 0.0 | 2.97 | 0.39 | 0.00 | 85 | 1007.5 |
| 20260506093353 | 58 | 0 | 0.0 | 0.0 | 3.17 | 1.44 | 0.00 | 85 | 1007.5 |
| 20260506092853 | 58 | 0 | 0.0 | 0.0 | 2.64 | 9.04 | 0.00 | 85 | 1007.6 |
| 20260506092353 | 58 | 0 | 0.0 | 0.0 | 3.09 | 8.43 | 0.00 | 85 | 1007.6 |
| 20260506091853 | 58 | 0 | 0.0 | 0.0 | 2.39 | 7.24 | 0.00 | 85 | 1007.5 |
| 20260506091353 | 58 | 0 | 0.0 | 0.0 | 2.50 | 0.96 | 0.00 | 85 | 1007.6 |
| 20260506090853 | 58 | 0 | 0.0 | 0.0 | 1.93 | 0.96 | 0.00 | 85 | 1007.4 |
| 20260506090353 | 58 | 0 | 0.0 | 0.0 | 3.07 | 0.96 | 0.00 | 85 | 1007.4 |
| 20260506085853 | 58 | 0 | 0.0 | 0.0 | 2.01 | 0.96 | 0.00 | 86 | 1007.3 |
| 20260506085353 | 58 | 0 | 0.0 | 0.0 | 1.90 | 0.96 | 0.00 | 86 | 1007.4 |
| 20260506084853 | 58 | 0 | 0.0 | 0.0 | 0.72 | 0.96 | 0.00 | 86 | 1007.5 |
| 20260506084353 | 58 | 0 | 0.0 | 0.0 | 0.84 | 0.85 | 0.00 | 87 | 1007.6 |
| 20260506083853 | 58 | 0 | 0.0 | 0.0 | 0.66 | 1.89 | 0.00 | 87 | 1007.5 |
| 20260506083353 | 58 | 0 | 0.0 | 0.0 | 1.21 | 1.22 | 0.00 | 87 | 1007.4 |
| 20260506082853 | 58 | 0 | 0.0 | 0.0 | 9.95 | 8.85 | 0.00 | 86 | 1007.4 |
| 20260506082353 | 58 | 0 | 0.0 | 0.0 | 9.87 | 8.24 | 0.00 | 86 | 1007.4 |
| 20260506081853 | 58 | 0 | 0.0 | 0.0 | 0.48 | 7.28 | 0.00 | 86 | 1007.5 |
| 20260506081353 | 57 | 0 | 0.0 | 0.0 | 0.89 | 0.96 | 0.00 | 85 | 1007.6 |
| 20260506080853 | 57 | 0 | 0.0 | 0.0 | 0.19 | 0.96 | 0.00 | 84 | 1007.6 |
| 20260506080353 | 57 | 0 | 0.0 | 0.0 | 9.97 | 0.96 | 0.00 | 84 | 1007.7 |
| 20260506073353 | 56 | 0 | 0.0 | 0.0 | 9.60 | 1.14 | 0.00 | 84 | 1008.1 |
| 20260506072853 | 56 | 0 | 0.0 | 0.0 | 9.19 | 0.40 | 0.00 | 84 | 1008.1 |
| 20260506072353 | 56 | 0 | 0.0 | 0.0 | 8.50 | 8.43 | 0.00 | 84 | 1008.3 |
| 20260506071853 | 56 | 0 | 0.0 | 0.0 | 8.23 | 7.53 | 0.00 | 84 | 1008.3 |
| 20260506071353 | 56 | 0 | 0.0 | 0.0 | 8.50 | 0.96 | 0.00 | 84 | 1008.2 |
| 20260506070853 | 56 | 0 | 0.0 | 0.0 | 8.48 | 0.96 | 0.00 | 84 | 1008.2 |
| 20260506070353 | 56 | 0 | 0.0 | 0.0 | 8.19 | 0.96 | 0.00 | 85 | 1008.1 |
| 20260506062353 | 56 | 0 | 0.0 | 0.0 | 6.24 | 8.04 | 0.00 | 84 | 1008.2 |
| 20260506061853 | 56 | 0 | 0.0 | 0.0 | 6.05 | 7.49 | 0.00 | 84 | 1008.2 |
| 20260506061353 | 56 | 0 | 0.0 | 0.0 | 6.15 | 0.96 | 0.00 | 84 | 1008.1 |
| 20260506060853 | 56 | 0 | 0.0 | 0.0 | 5.85 | 0.96 | 0.00 | 83 | 1008.2 |
| 20260506060353 | 56 | 0 | 0.0 | 0.0 | 6.09 | 0.96 | 0.00 | 83 | 1008.3 |
| 20260506051354 | 56 | 0 | 0.0 | 0.0 | 9.05 | 0.96 | 0.00 | 82 | 1009.0 |
| 20260506050854 | 56 | 0 | 0.0 | 0.0 | 8.68 | 0.96 | 0.00 | 82 | 1009.1 |
| 20260506050354 | 56 | 0 | 0.0 | 0.0 | 9.44 | 0.96 | 0.00 | 82 | 1009.0 |
| 20260506044854 | 56 | 0 | 0.0 | 0.0 | 9.07 | 0.24 | 0.00 | 82 | 1009.2 |
| 20260506044354 | 56 | 0 | 0.0 | 0.0 | 9.21 | 1.56 | 0.00 | 82 | 1009.0 |
| 20260506043854 | 56 | 0 | 0.0 | 0.0 | 9.54 | 0.95 | 0.00 | 82 | 1009.0 |
| 20260506043354 | 56 | 0 | 0.0 | 0.0 | 0.42 | 0.22 | 0.00 | 82 | 1009.1 |
| 20260506042854 | 56 | 0 | 0.0 | 0.0 | 0.99 | 0.05 | 0.00 | 82 | 1009.2 |
| 20260506042354 | 56 | 0 | 0.0 | 0.0 | 0.78 | 8.75 | 0.00 | 82 | 1009.2 |
| 20260506041854 | 56 | 0 | 0.0 | 0.0 | 0.62 | 7.55 | 0.00 | 82 | 1009.4 |
| 20260506041354 | 56 | 0 | 0.0 | 0.0 | 2.11 | 0.96 | 0.00 | 81 | 1009.3 |
| 20260506040854 | 56 | 0 | 0.0 | 0.0 | 2.35 | 0.96 | 0.00 | 81 | 1009.4 |
| 20260506040354 | 56 | 0 | 0.0 | 0.0 | 2.74 | 0.96 | 0.00 | 81 | 1009.4 |
| 20260506035854 | 56 | 0 | 0.0 | 0.0 | 2.17 | 0.96 | 0.00 | 81 | 1009.4 |
| 20260506035354 | 56 | 0 | 0.0 | 0.0 | 3.39 | 0.96 | 0.00 | 81 | 1009.5 |
| 20260506034854 | 56 | 0 | 0.0 | 0.0 | 3.76 | 0.96 | 0.00 | 81 | 1009.4 |
| 20260506034354 | 56 | 0 | 0.0 | 0.0 | 3.62 | 0.96 | 0.00 | 81 | 1009.5 |
| 20260506033854 | 56 | 0 | 0.0 | 0.0 | 2.84 | 0.96 | 0.00 | 81 | 1009.5 |
| 20260506033354 | 56 | 0 | 0.0 | 0.0 | 3.70 | 0.00 | 0.00 | 80 | 1009.4 |
| 20260506032854 | 56 | 0 | 0.0 | 0.0 | 3.78 | 0.85 | 0.00 | 80 | 1009.5 |
| 20260506032354 | 56 | 0 | 0.0 | 0.0 | 3.96 | 0.26 | 0.00 | 80 | 1009.7 |
| 20260506031854 | 56 | 0 | 0.0 | 0.0 | 2.41 | 7.73 | 0.00 | 80 | 1009.7 |
| 20260506031354 | 56 | 0 | 0.0 | 0.0 | 2.70 | 0.96 | 0.00 | 80 | 1009.7 |
| 20260506030854 | 56 | 0 | 0.0 | 0.0 | 2.62 | 0.96 | 0.00 | 80 | 1009.8 |
| 20260506030354 | 57 | 0 | 0.0 | 0.0 | 2.54 | 0.96 | 0.00 | 80 | 1009.9 |
| 20260506025854 | 56 | 0 | 0.0 | 0.0 | 0.13 | 0.96 | 0.00 | 80 | 1010.0 |
| 20260506025354 | 56 | 0 | 0.0 | 0.0 | 2.21 | 0.96 | 0.00 | 80 | 1010.1 |
| 20260506024854 | 57 | 0 | 0.0 | 0.0 | 1.86 | 0.96 | 0.00 | 80 | 1010.0 |
| 20260506024354 | 57 | 0 | 0.0 | 0.0 | 1.95 | 0.96 | 0.00 | 80 | 1010.2 |
| 20260506023854 | 57 | 0 | 0.0 | 0.0 | 1.46 | 0.53 | 0.00 | 80 | 1010.2 |
| 20260506023354 | 57 | 0 | 0.0 | 0.0 | 1.46 | 1.30 | 0.00 | 80 | 1010.2 |
| 20260506022854 | 57 | 0 | 0.0 | 0.0 | 0.50 | 9.22 | 0.00 | 80 | 1010.3 |
| 20260506022354 | 57 | 0 | 0.0 | 0.0 | 0.58 | 8.77 | 0.00 | 80 | 1010.4 |
| 20260506021854 | 57 | 0 | 0.0 | 0.0 | 9.56 | 7.61 | 0.00 | 80 | 1010.4 |
| 20260506021354 | 57 | 0 | 0.0 | 0.0 | 0.68 | 0.96 | 0.00 | 80 | 1010.4 |
| 20260506020854 | 57 | 0 | 0.0 | 0.0 | 0.23 | 0.96 | 0.00 | 80 | 1010.5 |
| 20260506020354 | 57 | 0 | 0.0 | 0.0 | 0.99 | 0.96 | 0.00 | 80 | 1010.7 |
| 20260506015854 | 57 | 0 | 0.0 | 0.0 | 9.74 | 0.96 | 0.00 | 80 | 1010.7 |
| 20260506015354 | 57 | 0 | 0.0 | 0.0 | 1.48 | 0.96 | 0.00 | 80 | 1010.7 |
| 20260506014854 | 57 | 0 | 0.0 | 0.0 | 2.39 | 0.94 | 0.00 | 80 | 1010.6 |
| 20260506014354 | 57 | 0 | 0.0 | 0.0 | 3.17 | 0.24 | 0.00 | 80 | 1010.6 |
| 20260506013854 | 57 | 0 | 0.0 | 0.0 | 2.78 | 1.22 | 0.00 | 80 | 1010.6 |
| 20260506013354 | 57 | 0 | 0.0 | 0.0 | 3.74 | 0.69 | 0.00 | 80 | 1010.6 |
| 20260506012854 | 57 | 0 | 0.0 | 0.0 | 3.70 | 9.22 | 0.00 | 80 | 1010.7 |
| 20260506012354 | 57 | 0 | 0.0 | 0.0 | 5.05 | 8.89 | 0.00 | 80 | 1010.6 |
| 20260506011854 | 57 | 0 | 0.0 | 0.0 | 4.31 | 7.18 | 0.00 | 80 | 1010.8 |
| 20260506011354 | 57 | 0 | 0.0 | 0.0 | 5.13 | 0.96 | 0.00 | 80 | 1010.9 |
| 20260506010854 | 57 | 0 | 0.0 | 0.0 | 4.35 | 0.96 | 0.00 | 80 | 1011.0 |
| 20260506010354 | 57 | 0 | 0.0 | 0.0 | 4.94 | 0.96 | 0.00 | 80 | 1011.0 |
| 20260506005854 | 57 | 0 | 0.0 | 0.0 | 3.92 | 0.96 | 0.00 | 80 | 1011.0 |
| 20260506005354 | 57 | 0 | 0.0 | 0.0 | 5.33 | 0.96 | 0.00 | 80 | 1011.1 |
| 20260506004854 | 57 | 0 | 0.0 | 0.0 | 5.23 | 0.96 | 0.00 | 80 | 1011.1 |
| 20260506004354 | 57 | 0 | 0.0 | 0.0 | 4.62 | 0.96 | 0.00 | 80 | 1011.2 |
| 20260506003854 | 57 | 0 | 0.0 | 0.0 | 4.27 | 0.96 | 0.00 | 80 | 1011.1 |
| 20260506003354 | 57 | 0 | 0.0 | 0.0 | 6.21 | 0.37 | 0.00 | 80 | 1011.2 |
| 20260506002854 | 57 | 0 | 0.0 | 0.0 | 5.47 | 0.87 | 0.00 | 80 | 1011.2 |
| 20260506002354 | 57 | 0 | 0.0 | 0.0 | 4.80 | 8.94 | 0.00 | 79 | 1011.4 |
| 20260506001854 | 57 | 0 | 0.0 | 0.0 | 4.29 | 7.67 | 0.00 | 79 | 1011.4 |
| 20260506001354 | 57 | 0 | 0.0 | 0.0 | 6.49 | 0.96 | 0.00 | 79 | 1011.3 |
| 20260506000854 | 57 | 0 | 0.0 | 0.0 | 5.82 | 0.96 | 0.00 | 79 | 1011.4 |
| 20260506000354 | 57 | 0 | 0.0 | 0.0 | 5.02 | 0.96 | 0.00 | 79 | 1011.4 |
| 20260505235854 | 57 | 0 | 0.0 | 0.0 | 3.09 | 0.96 | 0.00 | 79 | 1011.4 |
| 20260505235354 | 57 | 0 | 0.0 | 0.0 | 4.07 | 0.96 | 0.00 | 79 | 1011.5 |
| 20260505234854 | 57 | 0 | 0.0 | 0.0 | 3.54 | 0.96 | 0.00 | 79 | 1011.7 |
| 20260505234354 | 57 | 0 | 0.0 | 0.0 | 3.37 | 0.96 | 0.00 | 79 | 1011.8 |
| 20260505233854 | 57 | 0 | 0.0 | 0.0 | 1.76 | 0.75 | 0.00 | 79 | 1011.7 |
| 20260505233354 | 57 | 0 | 0.0 | 0.0 | 3.25 | 0.65 | 0.00 | 79 | 1011.7 |
| 20260505232854 | 57 | 0 | 0.0 | 0.0 | 3.21 | 1.73 | 0.00 | 79 | 1011.6 |
| 20260505232354 | 57 | 0 | 0.0 | 0.0 | 3.09 | 1.01 | 0.00 | 79 | 1011.7 |
| 20260505231854 | 57 | 0 | 0.0 | 0.0 | 0.74 | 7.34 | 0.00 | 79 | 1011.9 |
| 20260505231354 | 57 | 0 | 0.0 | 0.0 | 2.82 | 0.96 | 0.00 | 79 | 1012.1 |
| 20260505230854 | 57 | 0 | 0.0 | 0.0 | 2.07 | 0.96 | 0.00 | 79 | 1012.0 |
| 20260505230354 | 57 | 0 | 0.0 | 0.0 | 2.07 | 0.96 | 0.00 | 79 | 1012.0 |
| 20260505225854 | 57 | 0 | 0.0 | 0.0 | 1.76 | 0.96 | 0.00 | 79 | 1012.1 |
| 20260505225354 | 57 | 0 | 0.0 | 0.0 | 1.01 | 0.96 | 0.00 | 79 | 1012.0 |
| 20260505224854 | 57 | 0 | 0.0 | 0.0 | 1.21 | 0.96 | 0.00 | 79 | 1012.1 |
| 20260505224354 | 57 | 0 | 0.0 | 0.0 | 1.31 | 0.96 | 0.00 | 79 | 1012.1 |
| 20260505223854 | 57 | 0 | 0.0 | 0.0 | 0.58 | 0.88 | 0.00 | 79 | 1012.1 |
| 20260505223354 | 57 | 0 | 0.0 | 0.0 | 0.95 | 1.75 | 0.00 | 79 | 1012.1 |
| 20260505222854 | 57 | 0 | 0.0 | 0.0 | 0.56 | 1.07 | 0.00 | 79 | 1012.0 |
| 20260505222354 | 57 | 0 | 0.0 | 0.0 | 0.93 | 0.71 | 0.00 | 79 | 1012.1 |
| 20260505221854 | 57 | 0 | 0.0 | 0.0 | 9.82 | 8.57 | 0.00 | 79 | 1012.3 |
| 20260505221354 | 57 | 0 | 0.0 | 0.0 | 9.29 | 0.96 | 0.00 | 79 | 1012.4 |
| 20260505220854 | 57 | 0 | 0.0 | 0.0 | 9.44 | 0.96 | 0.00 | 79 | 1012.3 |
| 20260505220354 | 57 | 0 | 0.0 | 0.0 | 9.68 | 0.96 | 0.00 | 79 | 1012.5 |
| 20260505215854 | 57 | 0 | 0.0 | 0.0 | 9.13 | 0.96 | 0.00 | 79 | 1012.5 |
| 20260505215354 | 57 | 0 | 0.0 | 0.0 | 0.56 | 0.96 | 0.00 | 79 | 1012.5 |
| 20260505214854 | 57 | 0 | 0.0 | 0.0 | 9.34 | 0.39 | 0.00 | 79 | 1012.6 |
| 20260505214354 | 57 | 0 | 0.0 | 0.0 | 9.52 | 1.50 | 0.00 | 79 | 1012.5 |
| 20260505213854 | 57 | 0 | 0.0 | 0.0 | 9.48 | 0.83 | 0.00 | 79 | 1012.6 |
| 20260505213354 | 57 | 0 | 0.0 | 0.0 | 0.95 | 0.10 | 0.00 | 79 | 1012.6 |
| 20260505212854 | 57 | 0 | 0.0 | 0.0 | 0.82 | 8.75 | 0.00 | 79 | 1012.6 |
| 20260505212355 | 57 | 0 | 0.0 | 0.0 | 0.54 | 8.04 | 0.00 | 79 | 1012.7 |
| 20260505211854 | 57 | 0 | 0.0 | 0.0 | 0.60 | 7.59 | 0.00 | 79 | 1012.9 |
| 20260505211354 | 57 | 0 | 0.0 | 0.0 | 1.52 | 0.96 | 0.00 | 79 | 1012.9 |
| 20260505210855 | 57 | 0 | 0.0 | 0.0 | 1.80 | 0.96 | 0.00 | 79 | 1012.9 |
| 20260505210354 | 57 | 0 | 0.0 | 0.0 | 0.82 | 0.96 | 0.00 | 79 | 1012.8 |
| 20260505205854 | 57 | 0 | 0.0 | 0.0 | 0.25 | 0.96 | 0.00 | 79 | 1012.8 |
| 20260505205354 | 57 | 0 | 0.0 | 0.0 | 1.37 | 0.96 | 0.00 | 79 | 1012.9 |
| 20260505204854 | 57 | 0 | 0.0 | 0.0 | 1.82 | 0.96 | 0.00 | 79 | 1012.9 |
| 20260505204354 | 57 | 0 | 0.0 | 0.0 | 1.60 | 0.96 | 0.00 | 79 | 1012.9 |
| 20260505203855 | 57 | 0 | 0.0 | 0.0 | 0.93 | 0.10 | 0.00 | 79 | 1012.9 |
| 20260505203354 | 57 | 0 | 0.0 | 0.0 | 1.76 | 0.87 | 0.00 | 79 | 1012.9 |
| 20260505202854 | 57 | 0 | 0.0 | 0.0 | 2.54 | 0.28 | 0.00 | 79 | 1013.0 |
| 20260505202354 | 57 | 0 | 0.0 | 0.0 | 2.82 | 8.87 | 0.00 | 78 | 1013.2 |
| 20260505201854 | 57 | 0 | 0.0 | 0.0 | 2.64 | 7.67 | 0.00 | 78 | 1013.0 |
| 20260505201354 | 57 | 0 | 0.0 | 0.0 | 4.27 | 0.96 | 0.00 | 78 | 1013.0 |
| 20260505200854 | 57 | 0 | 0.0 | 0.0 | 3.86 | 0.96 | 0.00 | 78 | 1012.9 |
| 20260505200355 | 58 | 0 | 0.0 | 0.0 | 4.29 | 0.96 | 0.00 | 78 | 1012.9 |